Regional Weather Roundup
Issued by NWS

Home | Current Version | Previous Version | Graphics & Text | Print | Product List | Glossary On
Versions: 1 2 3 4 5 6 7 8 9 10 11 12 13 14 15 16 17 18 19 20 21 22 23 24 25 26 27 28 29 30 31 32 33 34 35 36 37 38 39 40 41 42 43 44 45 46 47 48 49 50
575
ASUS44 KLIX 261005
RWRLA
LOUISIANA WEATHER ROUNDUP
NATIONAL WEATHER SERVICE NEW ORLEANS LA
400 AM CST WED NOV 26 2014

NOTE: "FAIR" INDICATES FEW OR NO CLOUDS BELOW 12,000 FEET WITH NO
      SIGNIFICANT WEATHER AND/OR OBSTRUCTIONS TO VISIBILITY.
      SKY/WX - SKY CONDITION AND SIGNIFICANT WEATHER.
      TMP - AIR TEMPERATURE.    DP   - DEWPOINT TEMPERATURE.
      RH  - RELATIVE HUMIDITY.  PRES - PRESSURE.
      HX  - HEAT INDEX.         WCI  - WIND CHILL INDEX.

*  THESE STATIONS ARE NOT NWS OR FAA STATIONS AND ARE NOT UNDER
   NWS QUALITY CONTROL.

LAZ040-048-061>063-065-066-069-261100-
SOUTHEAST LOUISIANA

CITY           SKY/WX    TMP DP  RH WIND       PRES   REMARKS
N.O. AUDUBON   NOT AVBL
N.O. INTL ARPT CLEAR     38  32  79 CALM      30.21S
N.O. LAKEFRONT CLEAR     48  36  63 N7        30.21S
N.O. DOWNTOWN* FAIR      46  34  61 N5        30.21S
SLIDELL        CLEAR     32  29  88 CALM      30.20S
BATON ROUGE    CLEAR     33  31  92 CALM      30.21R
BOOTHVILLE     CLEAR     49  34  56 N9        30.22R
BELLE CHASSE   CLEAR     36  32  85 CALM      30.21S
BOGALUSA*        N/A     32  30  92 CALM      30.21S FOG
NEW ROADS*     FAIR      33  33  98 CALM      30.21S
GONZALES*      FAIR      33  33 100 CALM      30.21S
HAMMOND*       CLEAR     32  30  93 CALM      30.22R
HOUMA*         CLEAR     34  33  98 CALM      30.22S
PORT FOURCHON* NOT AVBL

$$

LAZ041-044-053-054-261100-
SOUTHWEST LOUISIANA

CITY           SKY/WX    TMP DP  RH WIND       PRES   REMARKS
LAKE CHARLES   CLEAR     39  37  92 CALM      30.21R
LAFAYETTE      CLEAR     38  34  85 CALM      30.22R
PATTERSON      CLEAR     34  32  93 CALM      30.24S
SALT POINT       N/A     46  38  73 CALM      30.21F
NEW IBERIA     CLEAR     35  33  92 CALM      30.22S
CHENAULT AIRPK NOT AVBL

$$

LAZ027-028-261100-
CENTRAL LOUISIANA

CITY           SKY/WX    TMP DP  RH WIND       PRES   REMARKS
FORT POLK      CLEAR     40  36  85 SW5       30.19R
ALEXANDRIA INT CLEAR     36  34  92 E3        30.18R
ALEXANDRIA     PTCLDY    34  32  92 CALM      30.19R

$$

LAZ001-002-261100-
NORTHWEST LOUISIANA

CITY           SKY/WX    TMP DP  RH WIND       PRES   REMARKS
SHREVEPORT     PTCLDY    42  34  73 S7        30.12F
BARKSDALE AFB  CLEAR     35  32  92 S7        30.14S WCI  29
DTN SHREVEPORT CLEAR     41  32  70 S7        30.13F

$$

LAZ014-016-261100-
NORTHEAST LOUISIANA

CITY           SKY/WX    TMP DP  RH WIND       PRES   REMARKS
MONROE         MOCLDY    35  33  92 CALM      30.17F
TALLULAH       PTCLDY    32  30  92 CALM      30.19S

$$




USA.gov is the U.S. government's official web portal to all federal, state and local government web resources and services.